Regional Weather Roundup
Issued by NWS Columbia, SC

Home | Current Version | Previous Version | Text Only | Print | Product List | Glossary On
Versions: 1 2 3 4 5 6 7 8 9 10 11 12 13 14 15 16 17 18 19 20 21 22 23 24 25 26 27 28 29 30 31 32 33 34 35 36 37 38 39 40 41 42 43 44 45 46 47 48 49 50
000
ASUS42 KCAE 241210
RWRCAE
REGIONAL WEATHER ROUNDUP
NATIONAL WEATHER SERVICE COLUMBIA SC
800 AM EDT SUN MAY 24 2015

NOTE: "FAIR" INDICATES FEW OR NO CLOUDS BELOW 12,000 FEET WITH NO
SIGNIFICANT WEATHER AND/OR OBSTRUCTIONS TO VISIBILITY.

NOT ALL STATIONS ARE QUALITY CONTROLLED BY THE NATIONAL
WEATHER SERVICE. USE DATA WITH CAUTION...ESPECIALLY
DEWPOINT OBSERVATIONS.

SCZ001>056-GAZ040-063>065-077-241300-
...UPSTATE SOUTH CAROLINA...

CITY           SKY/WX    TMP DP  RH WIND       PRES   REMARKS
ANDERSON       MOSUNNY   62  55  77 NE3       30.40S
6HR MIN TEMP:  56; 6HR MAX TEMP:  63;

LIBERTY        MOSUNNY   53  52  94 CALM      30.41R
6HR MIN TEMP:  50; 6HR MAX TEMP:  82;

SPARTANBURG    PTSUNNY   63  55  77 N3        30.42S
CLEMSON        MOSUNNY   63  55  75 NE3       30.42R
6HR MIN TEMP:  58; 6HR MAX TEMP:  63;

GREENVILLE     PTSUNNY   63  56  78 CALM      30.42S
6HR MIN TEMP:  58; 6HR MAX TEMP:  65;

GREENWOOD      MOSUNNY   58  55  90 NE3       30.41R
6HR MIN TEMP:  52; 6HR MAX TEMP:  61;

GREER          PTSUNNY   62  57  83 CALM      30.41R
6HR MIN TEMP:  55; 6HR MAX TEMP:  62;

ROCK HILL      SUNNY     62  56  80 CALM      30.43R
6HR MIN TEMP:  52; 6HR MAX TEMP:  64;

CHESTER        SUNNY     61  54  77 CALM      30.42S
LAURENS        PTSUNNY   59  57  94 CALM      30.41S


...CENTRAL SOUTH CAROLINA...

CITY           SKY/WX    TMP DP  RH WIND       PRES   REMARKS
COLUMBIA APT   PTSUNNY   63  56  78 SE3       30.39R
6HR MIN TEMP:  56; 6HR MAX TEMP:  64;

COLUMBIA OWENS MOSUNNY   66  58  75 E3        30.41R
6HR MIN TEMP:  60; 6HR MAX TEMP:  66;

DARLINGTON     SUNNY     63  55  77 NE3       30.43R
6HR MIN TEMP:  55; 6HR MAX TEMP:  63;

FLORENCE       MOSUNNY   64  58  80 NE3       30.41R
6HR MIN TEMP:  57; 6HR MAX TEMP:  64;

MCENTIRE ANGB  SUNNY     65  59  81 VRB1      30.40R
6HR MIN TEMP:  55; 6HR MAX TEMP:  65;

ORANGEBURG     SUNNY     66  60  81 NE5       30.39R
6HR MIN TEMP:  59; 6HR MAX TEMP:  66;

SUMTER SHAW    SUNNY     64  59  86 NE6       30.38S
6HR MIN TEMP:  56; 6HR MAX TEMP:  64;

NEWBERRY       PTSUNNY   63  59  88 E3        30.43S
AIKEN          FAIR      61  55  82 NE6       30.42R
BARNWELL       FAIR      66  61  82 NE3       30.38S
MANNING        FAIR      61  54  77 CALM      30.39R
CAMDEN         FAIR      64  57  77 CALM      30.41S
LANCASTER      SUNNY     61  59  94 E3        30.42S
WINNSBORO      SUNNY     64  59  82 SE3       30.41R


...EASTERN AND COASTAL SOUTH CAROLINA...

CITY           SKY/WX    TMP DP  RH WIND       PRES   REMARKS
MYRTLE BEACH   MOSUNNY   75  57  53 SE14      30.39R
N MYRTLE BCH   SUNNY     71  59  65 N6        30.38R
6HR MIN TEMP:  62; 6HR MAX TEMP:  73;

CONWAY         PTSUNNY   64  61  88 CALM      30.40R
MARION         FAIR      63  59  88 CALM      30.40R
HARTSVILLE     FAIR      66  59  77 CALM      30.40S
FLORENCE       MOSUNNY   64  58  80 NE3       30.41R
6HR MIN TEMP:  57; 6HR MAX TEMP:  64;

DARLINGTON     SUNNY     63  55  77 NE3       30.43R
6HR MIN TEMP:  55; 6HR MAX TEMP:  63;

CHARLESTON APT MOSUNNY   69  60  73 NE5       30.36R
6HR MIN TEMP:  59; 6HR MAX TEMP:  69;

MOUNT PLEASANT LGT RAIN  70  63  78 CALM      30.36S
WALTERBORO     SUNNY     64  59  82 NE5       30.37S
BEAUFORT       SUNNY     71  63  75 NE6       30.35R
6HR MIN TEMP:  66; 6HR MAX TEMP:  74;



...EASTERN GEORGIA...

CITY           SKY/WX    TMP DP  RH WIND       PRES   REMARKS
AUGUSTA BUSH F SUNNY     64  61  90 CALM      30.37R
6HR MIN TEMP:  56; 6HR MAX TEMP:  64;

AUGUSTA DANIEL SUNNY     67  57  70 E7        30.38R
6HR MIN TEMP:  66; 6HR MAX TEMP:  68;

THOMSON        SUNNY     64  63  96 E5        30.41S
6HR MIN TEMP:  58; 6HR MAX TEMP:  68;

WASHINGTON     FAIR      63  63 100 E5        30.37S
CLAXTON        FAIR      68  64  88 CALM      30.34S
SYLVANIA       SUNNY     67  64  87 E3        30.36S
6HR MIN TEMP:  63; 6HR MAX TEMP:  67;

STATESBORO     CLOUDY    69  68  98 CALM      30.35S
6HR MIN TEMP:  60; 6HR MAX TEMP:  69;

SAVANNAH       PTSUNNY   71  62  73 NE3       30.34R
6HR MIN TEMP:  63; 6HR MAX TEMP:  72;



...SOUTHERN NORTH CAROLINA...

CITY           SKY/WX    TMP DP  RH WIND       PRES   REMARKS
CHARLOTTE      MOSUNNY   63  54  72 CALM      30.43R
6HR MIN TEMP:  54; 6HR MAX TEMP:  63;

MONROE         SUNNY     63  56  78 CALM      30.41S
6HR MIN TEMP:  53; 6HR MAX TEMP:  63;

WADESBORO      SUNNY     58  53  83 CALM      30.42S
6HR MIN TEMP:  51; 6HR MAX TEMP:  59;

ROCKINGHAM     SUNNY     60  55  82 CALM      30.42R
6HR MIN TEMP:  54; 6HR MAX TEMP:  60;

RUTHERFORDTON  PTSUNNY   58  53  84 CALM      30.44S
6HR MIN TEMP:  50; 6HR MAX TEMP:  58;

ASHEVILLE      MOSUNNY   53  48  83 CALM      30.45R
6HR MIN TEMP:  49; 6HR MAX TEMP:  53;


$$



USA.gov is the U.S. government's official web portal to all federal, state and local government web resources and services.